Starlink 11539

operational
NORAD ID: 62987 Int'l Des: 2025-031 Owner: SPXS Country: US Constellation: starlink
LEOCIRCULAR

About Starlink 11539

Description loading...

Live Position

Loading 3D Globe...

Upcoming Passes

Altitude History

Altitude vs Time

uPlot chart will show altitude changes over time

Two-Line Element Set

1 62987U 25031G 25350.14612431 .00178295 00000-0 13586-2 0 9997
2 62987 42.9995 144.9906 0002414 280.3083 79.7512 15.70923402 49603
Epoch: Dec 16, 2025 • Age: 27 hours

Current Status

Altitude 365.6 km
Velocity 7.69 km/s
Sub-Earth Point -39.24°S, 164.78°W
Launch Date Feb 11, 2025
Age 0.8 years
Type internet

Technical Details

Classification Payload
Mass 960.00 kg
Dry Mass 910.00 kg
Total Mass 960.00 kg
Length 0.30 m
Diameter 4.10 m
Span 29.00 m
Shape Box + pan
Manufacturer SPXS
Bus Type Starlink V2MD
Phase Status In Orbit
Owner/State SPXS/US

Large Constellations

Loading constellations...